This demonstration page uses our WeatherBlox Daily Observations layout. Learn more.

Left ArrowRight Arrow

39.12711, -84.51439

Hourly Observations for October 27, 2020

Temp ( °F °C ) Dew Point ( °F °C ) Humidity (%) Winds ( mph kmh ) Pressure ( in mb ) Visibility ( mi km ) Precip ( " mm )
12:53 am 00:53 Cloudy with Light Rain 47 8.3 44 6.7 90 90 N 5 7 30.27 1025 7 11 0.01 0.25
1:23 am 01:23 Mostly Cloudy 47 8.3 43 6.1 86 86 NNE 7 11 30.28 1025 7 11 0.00 0.00
1:40 am 01:40 Mostly Cloudy 46 7.8 43 6.1 89 89 VRB 5 7 30.26 1025 7 11 0.00 0.00
1:53 am 01:53 Mostly Cloudy 46 7.8 43 6.1 89 89 undefined N/A 30.26 1025 7 11 0.00 0.00
2:53 am 02:53 Mostly Cloudy with Mist and Fog 47 8.3 44 6.7 90 90 Calm 30.26 1025 6 10 0.00 0.00
3:53 am 03:53 Cloudy 47 8.3 44 6.7 90 90 NE 3 6 30.27 1025 8 13 0.00 0.00
4:53 am 04:53 Cloudy 47 8.3 44 6.7 90 90 undefined N/A 30.26 1025 7 11 0.00 0.00
5:53 am 05:53 Cloudy 47 8.3 44 6.7 90 90 NE 3 6 30.27 1025 7 11 0.00 0.00
6:35 am 06:35 Cloudy 47 8.3 44 6.7 90 90 NE 3 6 30.28 1025 8 13 0.00 0.00
6:53 am 06:53 Cloudy 47 8.3 43 6.1 86 86 NE 5 7 30.27 1025 9 14 0.00 0.00
7:53 am 07:53 Cloudy 47 8.3 43 6.1 86 86 NE 3 6 30.27 1025 8 13 0.00 0.00
8:53 am 08:53 Cloudy with Mist and Fog 47 8.3 44 6.7 90 90 NE 5 7 30.27 1025 6 10 0.00 0.00
9:53 am 09:53 Cloudy with Mist and Fog 48 8.9 44 6.7 86 86 N 3 6 30.29 1026 6 10 0.00 0.00
10:53 am 10:53 Cloudy with Haze 49 9.4 44 6.7 83 83 Calm 30.28 1025 6 10 0.00 0.00
11:40 am 11:40 Cloudy 50 10 45 7.2 83 83 NE 5 7 30.26 1025 7 11 0.00 0.00
11:53 am 11:53 Cloudy 50 10 45 7.2 83 83 Calm 30.26 1025 7 11 0.00 0.00
12:53 pm 12:53 Cloudy 52 11.1 45 7.2 77 77 NW 3 6 30.24 1024 8 13 0.00 0.00
1:53 pm 13:53 Cloudy with Mist and Fog 52 11.1 46 7.8 80 80 Calm 30.22 1024 6 10 0.00 0.00
2:53 pm 14:53 Cloudy with Mist and Fog 52 11.1 46 7.8 80 80 S 3 6 30.19 1022 6 10 0.00 0.00
3:53 pm 15:53 Cloudy with Light Rain 53 11.7 46 7.8 77 77 Calm 30.17 1022 6 10 0.00 0.00
4:00 pm 16:00 Cloudy with Light Rain 53 11.7 46 7.8 77 77 Calm 30.17 1022 9 14 0.00 0.00
4:53 pm 16:53 Mostly Cloudy with Light Rain 54 12.2 48 8.9 80 80 Calm 30.15 1021 9 14 0.00 0.00
5:53 pm 17:53 Cloudy with Light Rain 53 11.7 47 8.3 80 80 Calm 30.18 1022 7 11 0.00 0.00
6:53 pm 18:53 Cloudy 52 11.1 48 8.9 86 86 Calm 30.17 1022 7 11 0.01 0.25
7:53 pm 19:53 Cloudy with Mist and Fog 51 10.6 49 9.4 92 92 Calm 30.17 1022 6 10 0.00 0.00
8:09 pm 20:09 Cloudy with Mist and Fog 51 10.6 49 9.4 92 92 Calm 30.17 1022 6 10 0.00 0.00
8:50 pm 20:50 Cloudy with Mist and Fog 52 11 48 9 88 88 Calm 30.16 1021 6 10 0.00 0.00
8:53 pm 20:53 Cloudy with Mist and Fog 51 10.6 49 9.4 92 92 Calm 30.16 1021 6 10 0.00 0.00
9:53 pm 21:53 Cloudy with Mist and Fog 51 10.6 49 9.4 92 92 Calm 30.15 1021 5 8 0.00 0.00
10:53 pm 22:53 Cloudy with Mist and Fog 51 10.6 49 9.4 92 92 NNE 5 7 30.15 1021 6 10 0.00 0.00
11:26 pm 23:26 Cloudy with Mist and Fog 50 10 48 8.9 93 93 N 6 9 30.17 1022 4 6 0.00 0.00
11:53 pm 23:53 Cloudy with Mist and Fog 50 10 48 8.9 93 93 NNE 3 6 30.15 1021 5 8 0.00 0.00

Powered by AerisWeather